Hourly Data Report for October 03, 2013

All times are specified in Local Standard Time (LST). Add 1 hour to adjust for Daylight Saving Time where and when it is observed.

RANKIN INLET A
NUNAVUT

62°48'38.000" N
92°06'53.000" W
32.30 m
2303405
71083
YRT

Download Data

Hourly Data (October 2013)
Hourly Data Report for October 3, 2013
Temp Definition
°C
Dew Point Temp Definition
°C
Rel Hum Definition
%
Wind Dir Definition
10's deg

Wind Spd Definition
km/h
Visibility Definition
km
Stn Press Definition
kPa
Hmdx Definition


Wind Chill Definition


Weather Definition


TIME
00:00 Legend Double Dagger -2.9 -4.6 88 1 20 24.1 101.20   -9 Mainly Clear
01:00 Legend Double Dagger -2.6 -5.4 81 3 26 24.1 101.25   -9 LegendNANA
02:00 Legend Double Dagger -2.6 -5.8 79 4 26 24.1 101.30   -9 LegendNANA
03:00 Legend Double Dagger -2.9 -6.0 79 4 23 24.1 101.35   -9 Mainly Clear
04:00 Legend Double Dagger -3.1 -6.2 79 1 27 24.1 101.42   -10 LegendNANA
05:00 Legend Double Dagger -3.3 -6.3 80 3 18 24.1 101.49   -9 LegendNANA
06:00 Legend Double Dagger -3.6 -6.6 80 3 24 24.1 101.53   -10 Mostly Cloudy
07:00 Legend Double Dagger -3.6 -6.6 80 1 24 24.1 101.61   -10 LegendNANA
08:00 Legend Double Dagger -3.7 -7.0 78 1 29 24.1 101.68   -11 LegendNANA
09:00 Legend Double Dagger -3.5 -7.0 77 3 22 24.1 101.73   -10 Cloudy
10:00 Legend Double Dagger -3.2 -6.7 77 36 27 24.1 101.76   -10 LegendNANA
11:00 Legend Double Dagger -3.0 -7.2 73 2 29 24.1 101.80   -10 LegendNANA
12:00 Legend Double Dagger -2.7 -7.1 72 36 28 24.1 101.84   -10 Cloudy
13:00 Legend Double Dagger -2.6 -7.0 72 36 28 24.1 101.88   -10 LegendNANA
14:00 Legend Double Dagger -2.5 -7.1 71 1 27 24.1 101.93   -9 LegendNANA
15:00 Legend Double Dagger -2.5 -7.1 71 36 26 24.1 101.97   -9 Cloudy
16:00 Legend Double Dagger -2.8 -7.5 70 35 26 24.1 102.02   -10 LegendNANA
17:00 Legend Double Dagger -2.9 -7.6 70 36 32 24.1 102.05   -10 LegendNANA
18:00 Legend Double Dagger -2.9 -7.4 71 36 25 24.1 102.08   -10 Cloudy
19:00 Legend Double Dagger -3.1 -8.0 69 35 30 24.1 102.12   -11 LegendNANA
20:00 Legend Double Dagger -3.0 -7.5 71 36 29 24.1 102.14   -10 LegendNANA
21:00 Legend Double Dagger -3.2 -8.1 69 35 30 24.1 102.18   -11 Cloudy
22:00 Legend Double Dagger -3.2 -8.1 69 2 23 24.1 102.18   -10 LegendNANA
23:00 Legend Double Dagger -3.5 -8.8 67 2 22 24.1 102.25   -10 LegendNANA

Notes on Data Quality.

Legend

  • E = Estimated
  • M = Missing
  • NA = Not Available
  • ‡ = Partner data that is not subject to review by the National Climate Archives
Date modified: